Arcata, CA

1:45 PM PDT on September 28, 2016 (GMT -0700)
Arcata

Weather History for KACV - November, 2011

Change the Weather History Date:

Friday, November 18, 2011

  Actual Average Record
Temperature  
Mean Temperature 44 °F -  
Max Temperature 48 °F 56 °F 69 °F (2001)
Min Temperature 39 °F 42 °F 32 °F (2000)
Degree Days  
Heating Degree Days 22    
Moisture  
Dew Point 41 °F    
Average Humidity 85    
Maximum Humidity 93    
Minimum Humidity 71    
Precipitation  
Precipitation 0.42 in - - ()
Sea Level Pressure  
Sea Level Pressure 29.93 in    
Wind  
Wind Speed 9 mph (SW)    
Max Wind Speed 17 mph    
Max Gust Speed 31 mph    
Visibility 8 miles    
Events Rain    
Averages and records for this station are not official NWS values.
T = Trace of Precipitation, MM = Missing Value Source: NWS Daily Summary

Daily Weather History Graph

Daily Weather History Graph

Search for Another Location

Airport or City:

Trip Planner

Search our weather history database for the weather conditions in past years. The results will help you decide how hot, cold, wet, or windy it might be!

Date:

Astronomy

Nov. 18, 2011 Rise Set
Actual Time 7:07 AM PST 4:55 PM PST
Civil Twilight 6:37 AM PST 5:25 PM PST
Nautical Twilight 6:04 AM PST 5:58 PM PST
Astronomical Twilight 5:31 AM PST 6:31 PM PST
Moon No Moon Rise 12:48 PM PST (11/18)
Length of Visible Light 10h 47m
Length of Day
9h 48m
Waning Gibbous, 48% of the Moon is Illuminated
Nov 18
Waning Gibbous
Nov 24
New
Dec 2
First Quarter
Dec 10
Full
Dec 17
Last Quarter

Hourly Weather History & Observations

Time (PST) Temp. Windchill Dew Point Humidity Pressure Visibility Wind Dir Wind Speed Gust Speed Precip Events Conditions
12:53 AM 46.9 °F - 43.0 °F 86% 30.01 in 10.0 mi SSE 9.2 mph - 0.00 in   Overcast
1:50 AM 46.4 °F 41.9 °F 42.8 °F 87% 29.97 in 10.0 mi South 9.2 mph - 0.02 in   Overcast
1:53 AM 46.9 °F - 43.0 °F 86% 29.99 in 10.0 mi SSE 9.2 mph - 0.02 in   Overcast
2:24 AM 46.4 °F 42.4 °F 44.6 °F 93% 29.98 in 2.0 mi SW 8.1 mph - 0.12 in Rain Rain
2:31 AM 46.4 °F 42.4 °F 44.6 °F 93% 29.98 in 4.0 mi SSW 8.1 mph - 0.13 in Rain Rain
2:53 AM 48.0 °F - 45.0 °F 89% 29.99 in 6.0 mi SSW 8.1 mph - 0.13 in   Overcast
3:24 AM 46.4 °F 42.4 °F 44.6 °F 93% 29.96 in 10.0 mi South 8.1 mph - 0.00 in   Overcast
3:53 AM 46.9 °F - 44.1 °F 90% 29.96 in 10.0 mi South 10.4 mph - 0.00 in Rain Light Rain
4:22 AM 46.4 °F 40.7 °F 44.6 °F 93% 29.92 in 10.0 mi South 12.7 mph - 0.01 in   Overcast
4:36 AM 46.4 °F 41.5 °F 42.8 °F 87% 29.92 in 10.0 mi South 10.4 mph - 0.01 in   Overcast
4:44 AM 46.4 °F 41.9 °F 42.8 °F 87% 29.92 in 10.0 mi South 9.2 mph - 0.01 in   Overcast
4:53 AM 46.9 °F - 43.0 °F 86% 29.94 in 8.0 mi South 8.1 mph - 0.01 in   Overcast
5:26 AM 46.4 °F 42.4 °F 44.6 °F 93% 29.91 in 10.0 mi South 8.1 mph - 0.01 in   Overcast
5:35 AM 46.4 °F 41.1 °F 44.6 °F 93% 29.91 in 8.0 mi SSW 11.5 mph - 0.01 in   Overcast
5:53 AM 46.9 °F - 45.0 °F 93% 29.92 in 5.0 mi South 9.2 mph - 0.02 in Rain Light Rain
6:16 AM 46.4 °F 40.7 °F 44.6 °F 93% 29.89 in 9.0 mi South 12.7 mph - 0.00 in   Overcast
6:53 AM 48.0 °F - 45.0 °F 89% 29.92 in 5.0 mi West 6.9 mph - 0.03 in Rain Light Rain
7:53 AM 48.9 °F - 44.1 °F 83% 29.91 in 6.0 mi WSW 11.5 mph - 0.00 in   Haze
8:06 AM 46.4 °F 39.5 °F 42.8 °F 87% 29.90 in 1.8 mi NW 17.3 mph 31.1 mph 0.04 in Rain Heavy Rain
8:14 AM 46.4 °F 42.4 °F 41.0 °F 81% 29.90 in 2.0 mi WNW 8.1 mph 26.5 mph 0.05 in Rain Light Rain
8:21 AM 46.4 °F 41.5 °F 41.0 °F 81% 29.90 in 8.0 mi West 10.4 mph - 0.05 in   Overcast
8:53 AM 48.0 °F - 41.0 °F 77% 29.93 in 10.0 mi NW 9.2 mph - 0.05 in   Overcast
9:50 AM 44.6 °F 38.8 °F 39.2 °F 81% 29.91 in 2.5 mi WNW 11.5 mph 25.3 mph 0.04 in Rain Rain
9:53 AM 45.0 °F 40.1 °F 39.9 °F 82% 29.92 in 2.5 mi WNW 9.2 mph 20.7 mph 0.05 in Rain Rain
10:03 AM 46.4 °F 42.9 °F 39.2 °F 76% 29.90 in 5.0 mi West 6.9 mph - 0.01 in Rain Light Rain
10:53 AM 48.9 °F - 42.1 °F 77% 29.91 in 9.0 mi West 10.4 mph - 0.01 in   Overcast
11:18 AM 46.4 °F 41.5 °F 42.8 °F 87% 29.90 in 4.0 mi NW 10.4 mph - 0.01 in Rain Light Rain
11:30 AM 48.2 °F - 41.0 °F 76% 29.89 in 10.0 mi NW 9.2 mph - 0.01 in   Overcast
11:53 AM 48.9 °F - 41.0 °F 74% 29.91 in 9.0 mi West 8.1 mph - 0.01 in   Overcast
12:53 PM 46.9 °F - 39.0 °F 74% 29.91 in 8.0 mi NNW 10.4 mph - 0.00 in   Overcast
1:53 PM 46.0 °F 43.9 °F 39.9 °F 79% 29.91 in 9.0 mi NNW 4.6 mph - 0.01 in   Mostly Cloudy
2:31 PM 44.6 °F 39.7 °F 39.2 °F 81% 29.89 in 2.5 mi North 9.2 mph 27.6 mph 0.03 in Rain Rain
2:33 PM 44.6 °F 39.7 °F 39.2 °F 81% 29.90 in 3.0 mi North 9.2 mph 23.0 mph 0.03 in Rain Rain
2:53 PM 45.0 °F - 39.0 °F 80% 29.91 in 10.0 mi Calm Calm - 0.04 in   Overcast
3:53 PM 46.9 °F - 37.9 °F 71% 29.93 in 10.0 mi SW 3.5 mph - N/A   Mostly Cloudy
4:27 PM 44.6 °F - 39.2 °F 81% 29.91 in 10.0 mi Calm Calm - N/A   Overcast
4:53 PM 44.1 °F 40.8 °F 39.9 °F 85% 29.93 in 10.0 mi SE 5.8 mph - N/A   Overcast
5:53 PM 43.0 °F 40.3 °F 37.9 °F 82% 29.94 in 10.0 mi Variable 4.6 mph - 0.00 in Rain Light Rain
6:53 PM 41.0 °F 37.1 °F 37.0 °F 86% 29.94 in 10.0 mi East 5.8 mph - 0.01 in   Scattered Clouds
7:38 PM 41.0 °F 38.0 °F 37.4 °F 87% 29.93 in 10.0 mi East 4.6 mph - N/A   Mostly Cloudy
7:53 PM 41.0 °F 38.0 °F 37.9 °F 89% 29.95 in 10.0 mi East 4.6 mph - 0.00 in   Overcast
8:53 PM 39.0 °F 35.7 °F 37.0 °F 93% 29.98 in 10.0 mi ESE 4.6 mph - 0.03 in   Scattered Clouds
9:53 PM 39.9 °F 36.7 °F 37.0 °F 89% 29.99 in 10.0 mi SSE 4.6 mph - N/A   Overcast
10:53 PM 39.9 °F 35.1 °F 36.0 °F 86% 30.00 in 10.0 mi SSE 6.9 mph - N/A   Mostly Cloudy
11:53 PM 39.9 °F 35.1 °F 36.0 °F 86% 30.00 in 10.0 mi SE 6.9 mph - N/A   Mostly Cloudy